FW9721 Weather Reports


time (UTC)temp
F
wind
direction
speed
knots
gust
knots
rain 1hr
in
rain 24hr
in
rain mn
in
humidity
%
barometer
mb
20260504041546 76 69 5.2 7.0 0.00 0.00 0.00 78 1018.9
20260504040107 76 49 3.5 7.0 0.00 0.00 0.00 78 1019.0
20260504034541 76 69 3.5 6.1 0.00 0.00 0.00 78 1018.7
20260504033039 76 46 4.3 7.8 0.00 0.00 0.00 77 1018.5
20260504031551 77 45 5.2 8.7 0.00 0.00 0.00 77 1018.4
20260504030049 77 96 5.2 9.6 0.00 0.00 0.00 77 1018.4
20260504024547 76 78 7.8 11.3 0.00 0.00 0.00 76 1018.2
20260504023045 76 90 7.0 10.4 0.00 0.00 0.00 76 1018.1
20260504021552 76 84 7.8 9.6 0.00 0.00 0.00 75 1017.9
20260504020048 76 77 7.0 10.4 0.00 0.00 0.00 77 1017.6
20260504014559 76 83 7.0 10.4 0.00 0.00 0.00 77 1017.5
20260504013046 76 56 8.7 13.9 0.00 0.00 0.00 77 1017.3
20260504011543 76 78 8.7 14.8 0.00 0.00 0.00 77 1017.4
20260504010049 76 76 8.7 13.9 0.00 0.00 0.00 77 1017.4
20260504004545 76 67 11.3 14.8 0.00 0.00 0.00 76 1017.3
20260504003055 76 94 10.4 13.9 0.00 0.00 0.00 77 1017.4
20260504001604 76 103 11.3 14.8 0.00 0.00 0.00 78 1017.1
20260504000047 76 59 10.4 13.9 0.00 0.00 0.00 79 1017.2
20260503234548 76 30 9.6 16.5 0.00 0.00 0.00 78 1017.2
20260503233042 76 341 9.6 15.6 0.00 0.00 0.00 78 1017.2
20260503231548 75 65 11.3 16.5 0.00 0.00 0.00 78 1017.3
20260503230046 75 64 13.9 17.4 0.00 0.00 0.00 79 1017.4
20260503224546 75 36 12.2 17.4 0.00 0.00 0.00 78 1017.4
20260503223043 75 77 13.0 17.4 0.00 0.00 0.00 78 1017.7
20260503221553 75 82 12.2 17.4 0.00 0.00 0.00 78 1017.9
20260503220050 75 65 13.0 16.5 0.00 0.00 0.00 77 1018.1
20260503214547 75 73 11.3 15.6 0.00 0.00 0.00 77 1018.2
20260503213047 75 73 11.3 13.0 0.00 0.00 0.00 77 1018.4
20260503211545 75 58 9.6 13.9 0.00 0.00 0.00 75 1018.7
20260503210041 75 72 10.4 13.0 0.00 0.00 0.00 75 1018.9
20260503204547 75 77 9.6 13.9 0.00 0.00 0.00 74 1019.2
20260503203047 75 62 11.3 14.8 0.00 0.00 0.00 74 1019.5
20260503201546 75 67 12.2 15.6 0.00 0.00 0.00 73 1019.6
20260503200050 76 39 12.2 15.6 0.00 0.00 0.00 72 1019.9
20260503194548 75 37 9.6 13.9 0.00 0.00 0.00 72 1020.1
20260503193044 75 30 8.7 15.6 0.00 0.00 0.00 73 1020.4
20260503191546 76 60 7.8 12.2 0.00 0.00 0.00 72 1020.8
20260503190046 76 23 7.8 12.2 0.00 0.00 0.00 68 1020.9
20260503184545 76 15 7.0 12.2 0.00 0.00 0.00 68 1021.2
20260503183107 76 340 7.0 10.4 0.00 0.00 0.00 68 1021.4
20260503181618 75 311 7.8 12.2 0.00 0.00 0.00 68 1021.6
20260503180047 75 337 8.7 11.3 0.00 0.00 0.00 68 1021.6
20260503174544 75 347 6.1 10.4 0.00 0.00 0.00 68 1021.8
20260503173055 75 358 7.8 10.4 0.00 0.00 0.00 68 1022.0
20260503171547 74 15 1.7 6.1 0.00 0.00 0.00 68 1021.9
20260503100104 71 295 1.7 6.1 0.00 0.00 0.00 69 1019.8
20260503081542 71 329 8.7 19.1 0.00 0.00 0.00 64 1020.3
20260503071558 71 306 9.6 13.9 0.00 0.00 0.00 66 1020.5
20260503070106 71 310 8.7 11.3 0.00 0.00 0.00 66 1020.4
20260503060113 71 321 6.1 9.6 0.00 0.00 0.00 66 1020.8
20260503054546 71 317 7.8 10.4 0.00 0.00 0.00 66 1020.7
20260503053044 71 326 12.2 17.4 0.00 0.00 0.00 66 1020.6
20260503051544 71 309 11.3 17.4 0.00 0.00 0.00 66 1020.7
20260503050049 71 318 9.6 14.8 0.00 0.00 0.00 66 1020.6
20260503044542 71 316 10.4 19.1 0.00 0.00 0.00 66 1020.5
20260503043042 71 327 10.4 17.4 0.00 0.00 0.00 66 1020.3